Theta_e
341 339 340 346 345 343 343 342 340 341 345 348 348 348 347 347 346 345 345 346 345 345 345 344 342 341 341 341 341 340 340 340 340 340 339 341 341 341 341 341 341 342 343 343 344 346 347 347 347 346 346 346 347 347 347 347 347 347 347 346 347 346 346 346 345 344 343 344 344 344 344 345 345 346 346 345 345 344 342 341 341 339 338 339 344
340 340 338 342 345 343 343 343 342 342 342 344 344 347 347 346 345 344 344 344 343 342 342 343 342 342 340 340 340 340 339 340 340 341 341 341 340 341 342 341 341 341 341 341 343 344 345 345 345 345 345 346 346 346 346 345 345 346 346 345 345 345 345 344 343 343 343 343 344 342 343 345 344 346 345 344 345 343 341 341 341 338 337 342 343
341 340 339 342 345 344 343 342 341 340 339 342 343 343 345 345 344 343 343 341 340 342 342 342 341 340 340 339 338 339 340 340 340 340 339 340 340 339 340 340 340 340 340 340 340 341 342 343 344 345 345 345 345 346 346 345 345 345 345 345 345 344 344 343 343 342 342 341 341 341 341 342 342 345 345 344 344 344 341 341 340 341 339 342 341
340 341 339 341 343 344 343 342 341 340 340 340 341 345 346 344 343 343 343 342 342 340 340 339 340 341 340 340 341 340 338 339 340 340 340 339 339 339 340 339 340 340 341 340 341 342 342 343 344 345 344 344 345 345 345 344 344 344 344 344 344 344 343 342 341 341 341 340 340 338 337 335 339 344 344 344 344 343 341 341 340 341 342 341 341
341 340 338 338 336 342 343 342 340 340 340 340 341 343 345 344 343 343 342 341 340 340 340 340 343 343 343 343 343 344 342 340 340 340 339 340 340 340 340 339 340 339 339 340 339 339 343 344 344 344 345 344 344 344 344 344 343 343 343 343 343 342 342 341 341 340 339 339 338 335 332 334 336 342 344 344 343 340 340 339 339 340 340 340 340
340 339 338 336 334 338 343 342 340 339 339 339 341 343 344 345 344 344 342 340 340 340 339 341 343 343 344 345 345 344 341 339 338 338 337 339 340 340 340 340 341 341 341 340 340 339 339 343 344 345 344 343 343 343 343 343 343 343 343 343 342 342 341 340 339 338 337 336 335 332 331 332 334 337 343 343 342 340 340 340 340 340 339 339 338
339 338 337 335 335 337 342 342 340 340 339 341 344 345 345 345 344 343 342 340 339 339 340 342 343 344 343 343 343 343 340 338 338 338 339 339 340 339 339 339 338 338 339 339 340 339 339 344 343 343 344 343 343 343 343 343 343 342 342 342 341 341 340 339 338 337 335 332 329 329 330 331 332 334 341 343 342 340 339 340 339 339 338 337 337
339 338 336 335 334 339 341 341 341 340 341 346 347 347 346 346 344 342 341 340 340 339 342 342 343 343 343 341 340 341 340 337 338 338 336 336 336 336 337 337 338 339 339 338 337 339 338 341 343 343 343 343 343 343 343 343 343 342 341 341 340 339 339 338 336 336 335 329 328 329 329 330 331 332 339 341 340 339 339 339 338 337 337 336 335
338 337 336 334 334 340 340 341 340 340 340 346 346 345 345 346 344 341 340 340 340 340 341 342 342 341 341 341 341 341 341 340 340 340 340 339 338 337 338 338 337 339 339 339 339 339 339 341 342 342 342 342 342 342 342 341 341 341 340 340 339 338 337 336 334 332 329 327 327 328 329 328 330 330 337 338 338 338 336 335 336 335 335 335 333
339 337 335 333 333 339 340 340 341 340 340 343 344 345 346 346 345 342 341 340 340 337 336 342 339 338 339 338 341 340 338 339 343 342 342 342 342 341 340 340 339 339 339 338 338 339 339 340 341 342 342 342 341 341 341 341 341 340 340 339 338 337 335 334 332 330 325 324 324 324 330 336 325 329 336 337 336 335 336 335 337 335 334 333 332
338 336 335 334 332 339 341 341 343 342 340 341 346 346 345 345 345 342 341 341 340 337 336 336 339 338 338 340 341 341 339 337 339 339 339 340 340 340 340 340 340 340 340 340 340 340 339 341 341 341 341 342 341 341 341 340 340 340 339 338 337 336 334 332 329 324 324 323 323 322 327 333 324 326 335 335 336 334 336 336 336 333 332 331 330
337 336 335 333 340 339 342 342 342 339 341 343 346 345 346 345 345 343 342 341 339 336 336 337 338 340 341 341 341 339 338 337 337 338 338 338 338 337 338 338 337 337 337 337 338 338 338 340 341 340 340 340 340 340 340 340 339 338 338 337 336 334 332 330 324 323 322 322 322 324 322 323 325 329 333 335 335 334 333 332 332 331 331 329 329
338 338 335 334 333 338 340 342 341 342 342 342 345 346 346 345 345 343 343 341 339 338 338 337 337 337 337 338 338 337 336 337 337 337 337 338 337 337 337 337 337 338 338 338 338 338 339 339 340 340 340 340 339 339 339 339 338 337 337 336 335 333 330 328 322 322 321 321 321 321 321 322 324 332 332 332 332 332 331 331 330 330 330 330 329
338 338 335 335 334 341 337 339 340 342 343 343 345 345 345 345 344 343 341 340 339 338 337 336 336 336 337 338 337 337 337 337 337 337 337 337 337 337 337 336 336 337 337 337 337 336 337 338 339 340 339 339 338 338 338 338 337 337 336 335 333 331 328 327 325 320 321 320 322 321 319 324 325 331 331 331 332 331 329 328 329 327 325 326 325
337 338 337 336 336 335 339 336 339 339 341 343 343 345 344 344 343 342 341 339 339 338 337 336 336 335 334 335 335 335 336 337 337 336 336 336 337 336 336 336 336 337 336 336 337 336 336 337 338 339 338 338 337 336 337 336 336 335 334 333 331 329 326 320 320 317 320 321 318 319 319 321 332 332 331 330 330 331 329 328 327 327 327 327 325
338 339 338 337 335 333 333 338 336 335 339 340 341 341 343 343 342 341 340 339 339 338 337 337 336 335 338 340 340 339 337 337 337 336 336 336 336 336 336 336 336 336 336 336 336 336 336 337 337 338 338 337 337 336 335 335 335 334 332 331 329 327 324 321 318 316 316 318 317 319 319 322 330 330 329 329 329 328 327 328 328 327 326 326 323
338 338 339 338 335 332 332 334 333 333 333 335 337 338 340 341 341 341 340 338 338 337 336 337 337 338 343 341 342 341 340 338 337 337 338 337 336 336 336 336 336 336 336 336 336 335 337 337 336 337 337 337 336 335 335 334 334 333 331 330 328 326 323 321 318 315 316 318 318 319 320 321 329 330 330 329 329 328 328 327 325 325 326 325 323
337 339 338 338 337 335 333 332 331 331 331 332 332 336 338 341 341 340 339 339 338 337 338 340 341 341 341 340 340 341 341 341 340 339 338 338 337 337 337 336 335 335 335 335 334 335 335 336 336 336 336 336 335 335 335 334 333 331 330 329 327 325 323 321 316 315 317 321 316 319 319 330 329 329 329 328 328 327 326 326 326 325 324 323 322
337 338 338 338 338 338 337 334 331 330 329 329 329 332 333 337 338 338 338 339 338 337 338 336 336 338 337 336 335 334 334 336 337 337 337 335 334 333 336 336 335 334 334 334 334 335 335 335 335 335 335 335 334 334 334 334 333 331 328 326 322 320 319 317 313 314 314 314 314 316 316 333 328 328 328 328 327 327 327 326 325 322 322 322 322
337 336 336 337 338 338 337 335 335 331 328 329 328 329 331 331 334 336 337 337 337 336 334 332 330 330 330 329 328 326 326 327 328 330 332 335 332 328 332 335 334 334 333 333 334 334 334 334 335 335 335 334 333 332 332 333 332 329 327 324 321 317 313 311 312 313 312 316 317 314 323 333 328 328 327 328 327 327 325 324 323 323 322 322 322
335 335 335 336 337 337 337 336 335 330 329 329 327 328 331 329 330 330 332 333 333 333 332 325 322 322 322 321 322 322 322 324 326 325 324 326 324 326 331 335 334 333 333 332 332 332 333 334 334 335 334 332 325 324 323 327 328 327 324 321 317 314 312 312 312 315 314 313 315 313 329 332 328 328 327 326 327 325 326 325 324 323 323 323 325
333 334 336 336 335 336 336 336 336 333 332 331 333 333 332 331 332 331 327 328 327 325 324 322 326 318 320 321 319 322 321 320 323 328 323 323 324 325 329 334 333 333 334 332 332 332 332 333 333 334 334 329 320 314 314 317 320 322 319 317 315 312 313 312 312 312 314 313 314 318 331 329 326 329 328 327 328 325 324 324 323 322 322 322 323
331 333 335 336 335 335 336 336 336 336 334 334 335 334 333 333 332 331 325 324 325 323 321 321 318 318 318 318 319 320 319 320 322 323 322 322 324 324 328 330 332 331 333 333 332 331 331 332 332 333 332 321 314 312 312 312 313 316 315 314 312 313 314 314 312 311 312 311 312 322 330 330 330 328 327 326 326 324 322 323 322 322 323 323 322
332 333 334 336 336 335 336 336 336 335 335 335 335 333 333 333 332 331 324 323 322 322 319 319 318 317 318 318 319 318 318 319 326 327 327 319 320 323 326 326 328 327 329 328 330 331 331 331 330 327 321 316 315 313 313 312 313 313 313 312 312 312 312 312 311 311 311 313 314 322 327 329 330 327 328 327 327 325 324 324 323 322 323 322 321
333 334 334 334 335 335 336 336 336 336 335 335 334 333 334 333 332 330 324 323 322 321 321 319 318 318 317 319 318 317 316 317 318 319 318 318 318 319 319 319 318 318 321 317 317 318 317 315 315 315 314 313 314 314 314 314 314 314 314 314 314 311 310 311 312 312 313 312 313 321 324 328 330 332 333 328 328 326 325 324 324 324 323 322 322
333 331 332 334 335 336 336 336 336 335 334 335 334 333 334 332 332 331 330 325 323 322 321 321 321 320 318 318 319 318 316 317 317 317 317 317 318 317 317 316 316 316 316 315 316 316 315 314 313 313 312 310 311 312 311 311 314 313 312 311 312 311 309 311 312 312 313 312 314 319 323 327 329 331 329 330 330 327 326 325 325 325 324 324 324
330 331 333 334 335 335 336 336 335 335 334 335 335 333 333 333 333 332 331 329 327 323 322 321 321 319 319 319 320 317 317 317 316 316 317 316 319 317 317 315 315 315 315 316 316 315 314 315 313 312 310 310 311 310 312 312 309 310 311 309 309 309 308 309 311 312 313 313 314 317 322 327 330 330 331 331 330 329 327 326 326 327 326 326 326
329 330 331 333 333 335 336 335 335 335 334 334 334 333 333 334 333 332 332 330 328 326 324 323 321 321 319 320 319 319 318 317 318 317 317 315 318 318 315 315 315 315 314 314 314 314 314 312 311 310 310 309 310 309 310 310 310 309 310 311 310 309 309 309 311 314 313 313 313 315 319 322 325 329 331 331 332 331 332 331 329 329 329 329 329
327 328 330 331 332 333 335 335 334 335 336 335 334 333 333 334 333 332 331 329 330 328 325 323 323 321 320 319 318 319 319 319 319 319 317 317 317 317 315 316 316 315 314 315 314 314 313 312 312 313 310 309 309 312 309 310 309 309 309 311 309 309 308 309 309 311 312 313 314 314 317 320 324 329 330 331 331 332 333 332 331 331 331 331 330
326 327 326 328 330 332 334 335 334 335 336 336 335 334 333 332 333 332 332 330 330 329 323 324 324 323 322 320 319 320 320 320 319 318 318 318 316 316 315 317 316 315 314 317 315 314 314 312 312 312 313 312 310 313 310 311 312 309 308 311 310 312 311 309 310 310 313 314 314 314 316 318 321 326 329 330 332 332 333 333 332 332 332 331 331
325 325 325 326 327 330 333 334 335 332 335 335 335 335 333 332 332 333 332 331 330 329 325 325 324 323 324 322 320 320 320 320 320 319 317 317 317 317 317 315 314 314 316 317 314 316 314 314 314 313 313 313 313 311 310 312 311 312 311 310 313 311 312 311 310 311 311 313 314 314 315 316 319 322 326 330 331 331 332 332 333 333 333 332 332
325 325 325 325 325 327 331 333 334 333 333 334 334 335 334 332 331 332 332 331 328 327 326 324 324 325 323 323 322 320 319 320 320 319 319 317 316 317 317 315 317 315 316 316 315 315 315 314 312 312 311 311 312 311 309 310 311 311 310 312 313 313 313 312 312 312 311 311 312 313 314 315 316 319 321 325 329 331 332 332 332 332 332 333 334
326 326 326 324 324 325 329 332 334 333 333 334 334 334 334 332 330 331 332 331 328 327 327 325 325 325 324 323 323 321 319 320 319 319 318 317 316 316 315 317 318 317 316 315 314 312 312 311 313 309 310 310 313 315 313 310 310 312 310 311 310 312 313 313 313 313 312 312 311 311 313 314 314 315 316 319 323 326 330 332 331 331 332 332 333
325 325 325 324 325 326 327 330 332 333 332 334 333 333 332 332 330 331 330 330 329 328 327 327 325 325 324 323 323 322 320 320 319 317 318 317 317 316 316 316 316 316 315 316 317 316 316 313 314 310 313 314 316 317 314 314 312 307 307 309 308 311 311 311 312 312 312 313 313 312 312 312 313 314 314 316 318 321 324 328 330 331 331 331 331
324 323 324 326 324 325 326 328 329 332 330 332 331 332 332 332 330 330 330 330 330 329 328 328 326 325 325 324 323 322 321 321 320 319 318 318 317 316 316 318 319 318 317 318 320 318 318 318 317 316 317 316 315 315 314 314 313 313 313 311 311 312 311 311 311 310 310 312 312 312 312 312 312 312 313 314 312 314 319 322 326 329 330 332 331
324 324 325 325 325 325 325 326 326 330 331 331 331 331 331 331 331 327 330 329 329 329 329 328 327 326 325 324 324 323 322 321 320 319 319 318 318 318 318 318 318 320 320 319 318 318 318 317 317 317 316 315 314 314 311 312 313 314 314 314 313 311 311 310 310 310 311 311 311 311 311 311 311 312 311 312 312 312 314 317 321 323 325 327 329
324 324 324 324 324 325 323 325 325 328 330 330 330 330 330 330 330 329 330 329 329 329 329 328 327 326 325 325 324 323 322 322 322 322 323 321 320 320 318 318 320 321 321 320 319 319 319 318 315 313 314 315 310 310 311 311 311 313 314 313 312 310 309 310 310 310 310 309 311 311 311 311 311 309 308 309 310 311 311 313 316 318 318 320 324
324 324 324 324 324 325 324 324 325 327 329 330 329 329 329 329 328 329 327 329 329 329 329 328 327 327 326 325 324 324 323 324 324 325 325 324 323 322 321 321 320 321 321 321 320 318 317 317 317 313 312 309 309 311 312 312 309 312 313 312 310 306 308 308 308 307 308 310 311 312 313 313 311 309 308 308 308 308 308 310 312 313 312 314 319
325 324 324 324 324 324 324 323 324 325 327 328 328 328 327 326 327 327 327 327 328 328 328 328 328 327 326 326 325 324 324 325 326 327 326 326 324 323 323 320 319 318 318 318 319 317 314 313 315 317 310 311 311 312 312 312 313 312 311 311 309 308 308 307 306 307 308 309 309 310 308 309 307 307 307 307 306 307 308 308 309 310 310 311 315
324 324 323 324 324 324 324 324 324 325 326 326 326 326 325 325 325 321 324 326 326 325 326 328 327 327 326 326 325 326 326 326 328 328 327 326 325 325 324 323 320 318 316 316 316 317 316 315 316 316 314 311 309 310 311 312 312 312 310 311 310 309 309 307 306 307 308 307 306 305 306 305 303 305 305 306 305 306 307 308 306 307 307 308 311
323 323 322 323 324 324 323 323 324 325 325 325 325 325 325 324 324 326 326 326 325 324 325 325 326 326 325 325 325 325 326 328 328 328 328 325 326 326 325 323 322 320 318 317 316 317 316 313 313 311 314 313 312 311 313 312 311 311 311 309 310 308 307 307 308 308 307 306 303 303 303 303 304 303 305 305 305 305 305 305 305 304 305 305 306
321 322 322 323 324 324 324 324 324 324 325 326 326 325 326 327 327 326 325 324 324 325 325 323 325 324 324 324 324 324 326 328 326 329 328 328 327 326 325 324 322 321 320 320 320 316 317 315 314 313 310 313 313 313 313 312 308 309 309 309 309 310 308 305 306 304 304 304 304 303 303 303 304 303 303 302 302 301 302 302 302 303 303 303 304
322 322 323 322 322 323 324 324 325 325 325 326 326 326 326 326 327 323 326 319 316 322 323 322 322 324 324 324 324 324 324 324 326 326 328 328 327 327 326 326 325 323 322 320 316 316 316 316 314 315 311 308 311 313 312 314 312 305 306 306 305 303 304 302 295 297 299 302 300 300 301 300 302 301 301 299 300 301 301 301 301 301 302 302 302
319 319 321 322 323 322 323 324 324 325 326 326 324 327 326 324 321 319 321 324 320 317 317 316 320 322 323 321 323 324 323 324 325 326 327 328 327 326 325 324 325 323 323 322 319 319 319 317 317 315 315 313 310 310 310 311 312 310 308 305 303 301 302 299 292 301 301 302 299 301 299 301 300 300 297 299 300 300 301 300 300 300 300 301 301
318 320 321 323 324 323 323 324 325 325 326 324 324 324 321 317 316 313 314 316 313 313 313 319 320 320 321 320 320 320 322 323 325 327 325 328 328 327 325 324 323 323 323 322 322 321 320 320 319 317 316 317 314 309 306 309 311 314 312 305 303 299 300 300 301 308 301 304 301 300 299 299 300 300 297 300 300 300 301 300 300 300 300 300 301
317 319 321 323 323 323 323 323 323 324 325 325 324 323 322 323 319 320 320 319 320 317 319 321 317 318 321 318 314 317 319 321 323 325 326 325 326 326 325 325 324 323 322 323 322 320 320 320 319 319 317 317 317 312 311 308 310 310 312 313 310 307 306 304 306 303 306 305 304 302 300 299 299 299 300 299 300 302 301 301 300 300 301 301 301
317 319 319 320 321 322 322 322 323 323 323 323 323 321 322 322 322 323 323 322 321 319 312 310 316 313 312 316 318 314 318 321 321 323 324 325 326 324 325 324 324 324 321 321 320 319 319 319 317 316 316 314 313 312 312 312 307 308 308 310 308 306 307 305 302 302 301 304 303 303 304 302 299 297 299 301 302 301 302 300 300 301 301 302 301
316 315 316 317 319 320 320 321 322 321 322 322 321 323 323 323 321 321 321 321 321 318 310 308 310 310 313 312 311 312 315 317 321 322 324 324 323 321 322 322 321 321 318 320 319 317 315 315 315 316 316 314 314 313 312 312 310 307 305 306 306 306 306 305 305 303 301 298 302 307 303 302 302 305 304 303 302 301 302 302 301 301 301 301 301
311 313 315 316 317 318 317 318 320 320 319 319 320 321 322 323 322 322 320 318 316 311 306 304 310 306 311 305 308 310 312 313 317 319 319 320 319 320 320 320 319 319 316 318 317 318 317 315 314 313 314 313 313 312 312 311 309 310 308 305 304 304 304 303 302 303 299 298 300 301 303 305 306 306 304 303 304 303 302 303 303 302 302 301 301
306 306 306 307 310 312 314 315 317 318 319 318 319 320 321 320 321 320 320 317 309 303 307 307 306 305 309 305 307 310 311 312 313 315 316 317 318 318 318 317 317 317 314 316 316 316 316 315 315 314 313 313 312 312 311 311 310 310 309 308 305 302 300 299 299 300 299 300 299 300 302 301 301 304 305 304 302 303 305 305 304 303 301 301 300
298 300 303 306 308 311 313 314 316 317 316 318 318 319 320 320 321 320 319 317 311 311 308 303 304 304 308 305 307 308 309 311 311 311 314 315 316 315 316 315 315 312 313 314 314 314 314 314 313 313 312 311 311 310 309 309 309 308 308 308 307 306 305 302 303 302 301 297 299 300 302 302 301 299 300 300 303 304 304 304 303 303 303 302 302
Wind_Speed
4 5 3 4 9 9 8 7 6 5 9 11 12 12 12 12 12 12 11 13 14 13 13 14 14 15 15 15 15 16 16 15 16 15 16 17 17 17 17 16 16 16 15 14 14 15 16 17 18 18 18 17 17 19 19 19 19 19 19 19 19 18 18 18 19 18 18 18 18 17 16 16 17 17 17 18 17 16 13 15 13 11 8 12 18
8 4 3 4 9 9 9 9 8 6 8 9 11 12 11 12 12 12 13 13 13 12 12 13 15 16 15 15 15 15 16 17 17 16 17 16 17 16 16 15 16 16 16 15 15 15 16 16 17 17 17 16 18 17 18 18 17 18 18 19 18 17 18 19 18 17 17 17 17 17 17 17 17 17 17 17 17 16 13 15 15 9 6 16 18
6 4 3 5 8 9 9 10 9 8 7 9 10 9 10 11 13 12 12 12 12 11 12 13 14 13 14 15 14 15 16 16 16 17 17 16 16 16 16 16 16 16 16 16 16 15 16 16 17 17 17 17 17 17 17 16 16 17 17 17 17 17 17 17 17 16 16 15 15 15 15 17 17 18 17 17 17 16 14 14 14 13 9 17 15
8 3 3 6 7 7 8 8 8 9 8 9 9 10 11 12 11 12 12 11 11 12 12 12 14 14 14 14 14 15 14 15 16 16 16 16 16 16 15 15 16 16 15 15 15 16 16 17 17 17 17 17 16 16 16 16 16 16 17 17 17 17 17 17 16 15 14 14 13 10 5 5 9 17 17 16 17 16 13 15 15 15 16 15 16
7 4 4 4 4 6 9 9 9 9 11 9 9 9 10 12 11 12 11 11 11 11 12 13 14 14 14 13 14 15 15 15 15 15 15 15 15 15 16 15 15 15 15 15 15 15 16 17 16 18 17 16 16 16 15 16 16 16 17 17 17 16 16 16 15 14 13 13 11 8 6 6 5 14 15 16 16 14 14 15 15 16 16 16 16
6 5 5 4 4 5 8 8 9 8 9 9 10 9 9 11 12 12 12 11 11 11 11 13 14 14 15 16 15 15 15 13 13 14 15 15 15 15 15 15 15 15 14 15 14 14 15 17 17 17 16 16 15 15 15 16 16 17 17 16 16 16 15 15 15 13 12 11 10 6 6 6 4 6 15 16 15 13 14 15 15 15 15 16 16
8 5 5 4 4 5 8 9 10 9 9 11 11 10 10 10 11 12 12 11 10 10 13 15 14 13 13 14 15 15 15 13 13 14 14 15 15 14 13 13 14 14 14 14 15 14 14 17 17 16 16 15 15 16 16 16 16 16 16 16 16 15 15 14 13 13 11 7 6 5 6 6 5 4 15 16 15 15 15 15 15 15 15 15 15
6 5 4 4 4 6 9 10 10 9 11 13 12 11 10 10 11 12 11 10 9 10 13 14 13 12 12 13 13 13 14 13 13 14 13 13 13 13 12 13 15 15 15 15 14 14 14 16 16 16 16 15 16 16 15 16 16 16 15 15 15 15 15 14 12 12 11 6 5 5 6 6 5 4 14 15 15 16 15 15 14 14 14 13 11
6 5 4 3 3 8 8 9 11 9 10 12 12 11 11 11 9 13 12 10 9 9 12 13 12 12 12 13 13 14 14 13 13 12 13 14 14 12 13 13 14 14 14 14 14 14 14 15 16 16 16 15 15 15 16 16 15 15 15 15 14 14 13 12 11 10 7 5 5 5 5 4 4 4 12 14 14 13 13 10 10 12 12 11 13
7 5 4 3 3 7 8 9 10 9 11 13 12 12 12 10 7 12 11 11 10 8 10 14 12 11 12 12 13 13 13 12 14 14 13 13 13 13 13 13 13 14 14 14 14 13 14 15 15 16 15 15 15 15 15 15 15 14 14 14 14 14 12 12 11 7 5 5 5 5 5 6 3 4 9 12 12 12 8 5 8 7 8 12 13
7 5 4 4 4 7 9 10 7 7 9 11 12 12 12 11 7 9 12 12 11 9 6 9 12 12 12 12 13 13 11 11 12 12 13 13 13 13 13 13 13 13 13 13 13 12 13 14 15 15 15 15 15 15 14 14 14 13 13 13 13 12 12 10 8 5 5 6 6 5 6 9 4 3 10 11 11 10 7 7 8 11 11 11 10
7 4 3 3 7 7 8 7 7 8 6 10 12 12 12 11 9 11 12 12 12 10 9 9 11 13 14 14 13 13 10 11 12 12 11 11 11 12 11 11 11 11 12 12 12 12 12 13 15 14 15 14 14 14 14 13 13 13 13 12 12 11 10 10 6 6 5 5 5 5 6 6 5 6 11 11 11 11 10 11 11 10 9 9 9
7 6 4 4 3 6 8 8 7 7 6 10 11 11 12 12 10 12 12 12 12 10 10 10 11 10 11 11 11 11 10 11 12 11 11 11 11 11 12 12 12 12 12 12 11 11 10 12 14 14 14 14 13 13 13 13 13 12 12 11 11 10 9 8 5 5 5 5 5 5 5 4 4 10 10 10 9 10 10 9 9 10 11 10 11
9 7 5 4 3 8 7 7 7 7 5 6 11 10 13 13 11 12 13 12 11 10 9 9 10 11 11 11 10 11 12 11 11 11 11 11 11 11 11 11 11 11 11 11 11 10 10 11 12 12 12 13 13 13 13 13 12 11 10 10 9 9 8 6 5 4 4 4 4 5 4 4 4 10 10 10 10 10 9 9 9 9 9 8 8
10 8 6 4 4 4 7 7 7 7 6 4 6 10 14 14 13 13 12 12 11 10 10 9 9 10 8 9 9 9 12 12 11 11 11 10 11 11 10 10 11 11 11 11 11 10 10 11 11 10 11 12 12 13 13 13 12 10 9 8 8 8 7 4 4 4 4 4 4 4 5 3 9 10 10 10 10 9 9 8 8 8 8 9 9
10 9 6 5 4 3 4 5 6 6 6 5 4 7 9 12 12 12 12 11 11 10 9 10 10 9 11 10 10 10 11 12 11 11 10 10 10 10 10 10 10 10 10 10 10 10 10 10 10 9 10 11 11 12 12 13 12 11 9 8 8 7 7 5 4 3 3 4 4 4 4 4 9 9 10 10 9 9 8 8 8 7 7 7 7
10 9 8 7 4 3 4 3 4 6 6 5 5 6 6 7 9 11 10 10 9 9 10 10 8 7 10 10 9 9 10 11 11 10 9 10 10 8 9 10 10 10 10 10 10 10 9 9 8 9 9 10 10 10 11 12 12 11 9 7 7 6 6 5 4 3 3 3 3 4 5 3 7 9 9 9 9 8 8 7 6 7 8 8 6
10 10 10 8 6 4 3 3 4 3 3 4 5 6 6 6 8 9 9 9 9 8 8 8 7 7 8 8 8 8 9 9 9 10 11 10 8 7 8 9 9 9 9 9 9 9 8 7 8 8 8 8 9 9 9 10 11 10 8 7 6 6 5 5 3 2 3 3 4 3 4 5 7 7 8 8 8 8 8 7 7 6 5 5 4
9 9 9 9 8 6 5 4 3 3 3 3 3 4 6 6 7 8 9 9 8 7 7 8 8 7 8 8 8 8 8 9 8 9 9 8 8 6 6 7 9 9 8 8 8 8 7 6 6 6 6 7 7 8 8 8 9 9 8 7 5 5 6 4 3 2 2 2 2 3 3 4 5 6 7 8 7 6 6 6 5 5 4 4 5
8 8 9 8 8 7 5 5 4 3 3 3 3 3 5 7 7 7 8 8 8 8 8 7 8 8 8 8 8 6 6 6 9 7 9 8 7 5 5 5 7 7 7 8 7 7 6 6 5 5 6 7 7 8 7 7 8 9 7 7 5 5 3 2 1 2 1 1 1 3 4 4 4 4 5 6 6 7 6 6 6 4 3 2 1
7 8 8 8 8 9 7 5 5 4 3 3 3 3 3 6 5 7 8 8 8 8 8 8 7 7 7 7 7 4 4 4 5 4 6 5 6 6 5 4 5 5 5 6 6 6 6 4 4 4 5 7 7 7 7 7 8 8 7 6 5 2 1 1 0 0 0 1 2 3 5 4 5 6 5 0 4 4 6 5 4 4 4 6 9
9 8 9 9 9 8 9 8 6 6 5 4 3 2 3 4 4 3 4 5 6 6 5 4 5 4 6 5 4 4 4 3 4 4 4 4 5 6 5 5 5 4 2 4 4 4 4 3 3 4 5 5 6 4 4 6 7 7 6 5 4 2 1 0 0 1 1 1 2 3 6 2 3 5 5 3 7 4 3 3 2 4 4 5 7
10 10 8 10 8 8 8 9 9 7 6 5 4 4 4 2 3 3 3 5 4 4 4 3 3 3 3 3 3 3 3 3 3 4 4 5 4 6 6 5 5 3 3 3 2 3 2 2 3 4 6 5 3 3 3 4 5 6 5 3 3 3 0 0 1 1 2 2 2 4 5 5 7 5 5 4 4 2 1 2 1 3 4 5 6
12 10 11 8 8 8 10 8 9 7 6 5 4 4 3 3 3 3 3 3 4 5 4 3 3 3 3 3 3 3 3 3 4 5 5 3 3 5 5 5 4 3 3 3 3 2 3 5 6 5 4 2 3 4 4 4 4 4 3 3 1 1 1 2 2 3 3 3 3 5 5 6 6 3 4 4 3 3 2 4 1 4 5 5 5
10 9 7 10 11 9 8 8 8 7 7 6 5 4 5 3 3 3 3 3 3 3 3 4 3 3 3 3 3 3 2 2 2 2 3 3 2 2 2 2 2 1 3 2 1 1 2 2 2 3 2 3 4 4 5 5 5 5 5 5 4 1 1 2 3 3 4 3 4 5 6 6 8 8 11 0 7 6 4 3 5 5 5 5 6
5 8 10 9 10 9 9 8 9 10 8 7 7 6 6 4 4 4 4 3 3 3 3 3 4 4 3 3 4 4 3 3 2 2 2 3 3 2 2 1 1 1 1 2 1 0 0 1 1 2 3 2 3 3 3 3 5 5 4 4 5 3 1 2 2 3 5 4 4 7 6 6 8 9 8 11 11 6 5 6 6 7 8 7 8
7 9 8 8 9 9 9 8 10 9 8 7 6 5 7 5 6 5 5 4 4 4 4 4 4 3 3 4 5 4 4 4 3 2 4 2 3 3 3 2 2 2 1 2 2 1 0 1 1 2 3 3 3 3 4 4 2 3 4 3 3 3 2 2 3 4 5 4 4 8 7 8 9 9 10 11 11 7 8 7 7 9 10 10 11
8 10 9 8 8 11 10 10 9 9 8 8 8 7 6 6 6 5 5 5 5 5 4 4 3 4 3 4 4 4 5 5 4 4 4 2 4 4 2 2 2 2 1 1 2 1 1 1 2 3 3 2 2 3 4 3 4 1 3 4 4 3 3 3 3 4 4 4 4 6 8 9 9 8 11 12 13 13 12 13 12 12 12 13 14
10 9 8 8 9 9 10 10 9 10 8 8 8 6 6 6 5 6 7 6 5 5 5 4 4 4 4 3 4 5 4 4 5 5 3 4 4 3 3 4 3 2 2 2 2 2 2 2 3 3 2 3 3 5 3 3 3 3 2 4 4 3 3 3 3 4 4 5 5 6 9 10 10 9 11 13 14 15 15 15 15 14 14 14 14
10 9 8 8 8 8 10 11 10 10 9 8 7 7 7 7 7 7 7 6 6 5 4 5 5 5 4 4 4 4 5 5 5 4 4 5 4 3 3 4 4 3 3 4 4 3 3 2 3 3 4 4 3 5 2 3 5 3 3 5 4 5 4 3 4 4 4 5 5 6 9 10 10 10 11 13 15 16 16 17 17 17 16 15 14
8 9 8 8 7 8 9 10 10 9 8 9 8 8 7 7 7 6 6 7 6 5 5 5 5 5 5 4 4 5 5 5 5 5 4 4 4 3 4 3 3 4 4 5 3 4 3 4 5 4 4 4 5 3 2 3 4 5 4 3 5 4 5 4 4 4 4 5 5 5 6 9 10 10 11 13 15 16 17 17 18 18 19 19 18
10 10 8 7 7 9 9 10 10 9 10 10 9 8 8 8 7 6 7 6 5 5 5 5 5 5 5 5 5 5 5 5 5 4 5 5 5 5 4 3 5 3 5 5 5 4 4 3 3 3 3 3 4 3 2 2 5 4 4 5 5 5 6 5 5 5 5 5 5 5 5 6 9 11 11 12 14 16 17 18 18 19 20 20 20
8 9 9 8 10 9 10 10 9 9 10 11 9 8 8 7 7 7 7 7 6 5 6 6 6 6 5 5 5 5 5 6 6 6 6 5 5 5 4 4 5 4 4 4 3 3 3 3 5 2 3 3 3 5 2 2 4 5 3 5 4 5 5 6 6 6 6 5 5 5 5 5 5 8 11 11 12 14 16 17 19 19 20 21 22
9 7 7 10 9 6 7 7 9 10 11 9 9 8 8 7 7 7 7 7 6 6 7 6 6 6 6 6 6 6 6 5 5 5 5 5 5 5 5 5 5 4 3 3 5 4 4 3 5 2 5 3 4 5 3 5 5 3 4 5 4 5 5 5 5 5 5 6 6 6 6 5 5 5 6 10 12 12 14 16 17 18 21 22 23
7 7 12 12 9 8 7 7 9 10 10 10 9 9 8 8 7 7 7 7 7 7 7 6 6 6 6 6 6 6 6 6 6 6 6 6 5 5 5 6 5 3 4 4 5 4 3 4 3 4 4 4 5 5 4 5 4 5 6 4 5 5 4 6 5 5 6 6 6 6 6 6 6 5 6 6 8 11 11 13 15 17 18 20 23
11 11 11 9 10 8 8 9 9 11 11 11 9 8 9 9 8 8 7 7 7 7 7 7 7 6 6 6 7 7 7 6 6 5 6 6 6 5 6 5 4 4 5 4 2 4 5 4 5 5 5 5 5 5 3 5 5 5 5 5 6 5 5 6 6 7 7 6 6 6 6 6 6 6 6 6 6 6 10 10 13 14 15 16 18
11 10 11 9 10 10 9 10 11 12 11 10 9 8 7 8 8 8 9 8 8 8 7 6 6 6 6 7 7 7 7 6 6 6 5 5 5 5 5 5 5 5 5 5 5 5 4 5 5 5 5 7 4 4 5 6 5 5 5 6 6 6 6 6 6 6 6 6 7 7 6 6 6 5 6 6 5 5 7 10 10 12 12 14 16
10 11 10 11 12 10 10 10 9 10 10 10 10 9 8 7 7 7 7 9 9 7 7 7 7 7 6 7 6 7 7 6 6 6 5 5 5 6 4 3 3 3 3 4 5 3 2 2 5 3 4 3 5 5 6 5 3 5 6 7 7 5 6 6 6 6 6 8 7 7 6 5 5 5 5 5 5 5 5 8 12 12 12 11 15
9 11 10 10 8 8 8 9 9 10 10 9 9 8 7 6 6 6 7 8 7 6 6 7 7 6 7 7 7 7 6 6 7 6 6 5 4 4 5 5 3 3 3 2 3 3 3 2 4 7 2 4 5 5 5 4 5 5 6 8 6 6 6 6 6 6 7 7 6 6 4 5 4 5 6 6 5 5 6 6 6 6 8 12 14
9 9 10 9 10 9 8 8 9 9 8 7 7 7 6 7 8 4 6 7 6 6 6 7 6 7 7 7 6 6 6 6 6 6 6 5 5 4 4 4 5 4 3 3 3 3 5 5 6 5 4 3 4 4 3 4 5 5 8 8 7 6 7 6 6 7 7 5 5 4 6 5 4 6 6 5 5 6 6 7 6 6 6 9 12
9 10 10 11 12 12 10 12 10 9 8 8 8 9 9 7 6 10 11 7 6 5 6 6 6 6 6 6 6 6 6 6 6 6 6 6 6 6 6 4 2 3 5 6 5 5 5 4 2 1 4 4 4 3 4 2 4 5 5 6 7 4 7 6 7 6 5 5 5 5 5 4 6 6 6 4 5 6 6 7 7 6 7 6 8
12 11 13 14 13 12 12 12 9 9 10 11 10 9 9 10 9 9 6 5 6 7 7 5 6 5 6 6 6 6 6 6 6 6 6 6 6 5 5 5 3 3 3 4 4 5 5 4 3 3 3 5 4 2 2 3 1 3 3 5 6 6 6 4 5 4 5 6 5 4 5 5 7 6 5 4 5 5 6 7 6 7 7 6 7
13 14 13 11 11 12 12 11 10 10 10 10 10 10 9 7 8 6 8 4 3 5 5 4 5 6 6 6 6 6 6 5 5 6 6 5 5 6 6 7 7 7 7 6 4 6 5 6 5 5 4 2 4 2 3 5 4 1 1 2 4 5 3 2 1 3 4 5 2 3 5 5 7 5 5 3 5 6 6 6 6 7 7 6 6
11 9 11 13 11 11 10 11 11 11 11 11 11 10 8 7 5 4 5 7 6 5 4 3 4 5 6 5 5 5 5 6 6 6 6 5 6 5 4 3 5 5 5 5 6 7 5 3 4 6 5 3 2 3 3 5 5 1 4 3 2 1 6 2 3 5 4 2 2 5 3 5 5 5 3 5 6 5 6 5 6 6 6 7 7
12 13 13 13 11 13 12 13 12 12 11 11 11 8 5 4 3 2 2 1 1 2 3 5 6 5 5 5 5 4 6 6 6 6 6 6 6 6 6 6 5 5 6 6 6 5 3 5 6 6 6 5 4 2 2 4 5 5 3 2 3 1 4 4 4 6 1 0 3 4 3 4 6 5 4 6 5 6 6 6 7 6 7 7 7
12 13 12 13 12 11 11 11 9 9 11 11 11 8 9 9 7 7 7 6 8 6 10 10 5 6 6 3 4 5 5 5 5 5 5 5 5 5 4 5 5 4 4 5 4 3 4 5 5 6 8 7 5 3 2 0 3 3 4 5 2 3 4 2 3 4 2 4 3 3 4 5 5 5 5 6 7 7 6 7 6 7 7 7 7
14 10 10 10 11 11 11 11 10 9 10 9 9 9 8 8 11 12 11 11 10 8 2 2 5 4 4 5 5 4 5 6 5 5 5 6 5 5 5 5 3 3 4 4 3 3 3 3 2 2 4 1 2 2 4 3 0 2 3 4 4 2 1 2 3 3 7 1 3 3 5 6 4 3 5 7 8 7 7 6 7 7 7 7 7
13 9 10 8 11 12 10 11 9 9 9 8 9 10 11 10 10 11 10 10 11 8 5 4 4 5 5 5 4 4 5 5 5 5 5 4 4 3 3 4 3 1 2 3 4 3 3 2 2 0 1 2 3 4 2 0 2 2 0 2 3 2 2 2 4 4 5 7 6 5 3 3 4 7 7 7 7 7 8 6 6 7 6 7 7
7 9 10 11 10 9 9 8 10 9 8 9 10 10 11 11 11 9 9 7 6 5 4 4 5 4 5 3 4 3 3 3 4 4 4 4 4 4 4 3 4 5 4 3 2 5 6 3 2 2 1 2 2 1 1 1 2 3 0 1 0 1 3 3 1 0 2 4 8 5 10 8 7 6 5 5 8 7 7 7 7 7 7 7 6
5 5 5 5 6 6 8 9 10 9 8 9 10 11 11 9 10 10 11 8 5 3 5 5 4 4 5 4 4 4 4 4 3 4 5 5 5 5 5 5 3 3 4 5 3 4 6 4 3 3 2 3 1 2 1 1 0 0 0 0 0 1 1 2 2 2 2 3 7 9 7 9 11 9 10 8 5 7 9 9 9 7 6 6 6
4 5 5 5 5 7 8 10 10 8 8 10 10 11 10 10 11 11 11 9 7 7 5 4 4 4 5 4 5 4 4 5 5 4 5 5 5 5 5 4 4 3 3 4 4 4 4 4 4 4 3 3 4 5 4 3 2 2 2 1 1 2 1 1 3 2 3 3 6 7 8 7 10 14 5 4 9 9 9 8 8 9 8 8 7
Wind_Direction
148 148 171 147 128 131 130 126 133 147 124 112 100 104 103 82 86 94 95 85 83 81 84 86 84 80 77 77 80 81 80 78 79 79 76 74 74 71 69 69 74 76 78 78 80 80 78 76 72 71 71 72 72 71 70 70 70 70 69 68 66 64 64 62 61 62 63 63 64 67 69 74 77 77 77 77 74 71 67 66 64 64 59 65 69
156 157 156 131 130 137 133 128 131 128 124 111 112 106 91 90 87 77 70 75 80 84 90 91 86 82 81 78 79 86 84 79 79 76 75 76 76 76 76 77 73 72 73 75 77 80 77 74 73 72 71 71 73 75 75 73 72 72 72 70 69 67 66 66 64 64 62 62 64 65 67 72 74 76 74 73 73 71 68 69 69 62 63 69 66
135 132 142 122 132 139 136 130 127 125 124 106 96 85 96 99 90 87 86 88 88 92 97 90 83 88 91 87 85 83 85 87 82 82 81 78 77 78 76 74 73 75 76 77 80 78 77 77 76 74 72 73 77 77 77 75 75 76 75 73 71 70 67 65 62 59 58 57 58 57 57 66 72 72 74 73 73 70 70 70 70 72 67 68 69
131 133 122 120 126 132 134 130 125 122 117 106 105 101 95 95 96 94 92 89 94 94 90 89 90 89 87 90 91 87 81 86 87 83 85 87 86 83 83 79 79 81 81 80 80 84 82 80 78 75 75 77 78 79 78 77 78 79 76 74 72 70 67 65 63 59 54 52 50 42 29 25 52 71 73 71 69 68 65 68 69 68 69 67 66
127 124 117 107 116 134 129 120 126 133 128 120 115 110 108 97 95 95 94 92 93 101 100 93 90 91 92 95 96 93 85 78 86 87 80 79 80 82 85 85 83 81 80 83 87 89 89 85 79 74 74 77 80 80 81 81 79 81 79 77 74 70 66 64 61 56 51 48 43 40 30 31 46 69 75 77 73 70 67 66 65 63 61 61 61
128 122 112 111 107 114 126 130 128 124 115 122 124 122 111 110 110 103 96 95 96 99 103 101 101 98 91 91 91 87 87 84 81 86 86 85 84 80 79 83 85 84 84 87 87 91 90 83 80 76 77 82 85 85 84 84 82 82 82 80 76 71 68 65 60 54 48 43 38 35 31 29 31 62 76 77 76 71 70 67 65 64 62 60 59
125 118 116 119 122 133 135 133 129 125 136 127 118 114 114 116 112 104 100 103 109 107 101 100 98 95 95 90 87 87 88 89 91 85 86 91 89 88 90 91 91 91 90 90 95 96 94 82 80 79 76 82 91 89 87 86 84 83 82 80 77 75 71 65 59 56 50 47 40 33 32 31 26 46 65 67 65 65 64 64 62 60 59 57 58
104 111 120 128 130 139 138 140 133 130 122 121 120 116 113 118 116 110 102 100 95 100 104 98 95 98 97 98 98 94 89 89 84 88 91 88 89 93 99 93 91 94 96 97 100 104 100 82 78 79 80 85 91 90 88 87 85 84 82 80 77 74 70 65 59 54 51 48 43 42 39 36 34 30 64 62 59 57 56 59 61 62 62 63 55
114 114 121 126 134 140 143 138 134 135 129 118 119 119 119 122 120 111 112 107 102 101 110 107 106 104 101 101 102 98 95 95 97 96 93 96 99 93 81 85 87 86 90 93 99 102 100 87 81 79 79 83 85 87 89 89 89 88 86 83 79 75 69 61 55 48 44 41 34 34 36 31 35 42 62 62 61 62 65 59 46 52 61 65 62
128 122 126 124 135 140 147 143 140 140 139 129 121 119 120 122 124 119 117 114 109 100 107 117 115 110 104 103 100 96 95 99 94 93 90 89 88 89 89 85 84 91 89 95 99 101 100 91 82 80 80 80 82 87 89 90 88 87 86 84 82 76 69 63 55 47 46 36 33 27 22 35 14 49 69 66 63 62 65 87 80 62 67 61 58
130 134 134 130 143 152 150 142 140 138 136 132 123 124 124 128 127 126 120 113 111 114 112 112 117 113 112 107 101 97 95 101 99 95 98 98 98 96 92 91 88 87 88 92 94 100 106 92 80 78 79 81 82 84 85 85 87 87 87 86 82 76 71 63 54 49 42 40 37 22 14 25 21 26 65 66 67 62 48 52 70 71 65 60 60
135 137 136 140 153 158 146 137 138 136 136 128 129 129 130 134 127 118 118 122 119 121 117 109 104 97 97 106 101 97 101 99 93 92 89 90 88 91 95 93 89 89 89 90 92 100 108 95 85 80 78 75 79 80 82 82 85 88 88 86 82 75 68 60 56 51 43 37 35 25 20 20 26 41 52 58 60 59 57 56 58 61 58 62 65
142 140 142 146 153 159 145 146 139 136 142 133 131 132 130 131 131 124 125 122 122 126 123 123 114 114 116 106 104 104 109 107 98 95 93 92 92 95 98 98 98 98 95 95 95 94 103 100 87 78 77 76 73 74 75 77 79 83 83 83 81 77 69 60 62 56 46 38 33 22 20 19 32 53 55 54 54 53 49 49 49 54 59 54 53
148 145 148 146 160 156 149 147 145 144 142 135 133 132 128 129 130 127 122 120 122 125 122 123 122 123 127 126 124 129 125 114 108 106 103 97 96 92 90 92 90 89 90 90 93 98 105 105 90 79 74 72 71 70 69 69 71 73 77 82 82 79 68 59 58 59 53 40 30 25 22 26 56 57 55 55 56 57 58 55 59 55 51 53 49
151 150 148 147 155 155 154 150 150 147 146 125 130 140 134 133 133 124 122 124 128 129 132 126 116 115 124 127 112 114 111 114 111 111 111 106 99 96 93 92 93 91 93 94 93 97 106 108 92 77 71 70 69 68 66 65 65 65 69 73 72 68 73 68 56 54 51 43 27 33 19 5 62 61 57 56 53 52 59 63 59 63 68 66 51
151 150 146 147 146 158 152 154 151 151 144 135 108 125 137 137 140 135 130 130 134 135 133 134 132 140 111 96 88 92 110 112 110 106 105 109 108 102 98 99 100 98 97 100 99 101 107 107 90 74 66 67 67 67 66 64 60 59 62 66 62 65 70 79 64 55 56 49 37 35 25 13 56 59 57 59 58 56 52 52 56 58 53 50 43
153 150 151 151 152 160 160 151 157 154 143 135 125 108 107 113 120 127 129 130 133 144 145 141 138 127 93 98 92 94 105 115 117 116 107 104 102 104 110 107 106 106 103 103 102 103 104 102 86 67 62 61 62 63 63 65 59 54 53 57 63 66 74 78 73 56 57 50 42 24 11 21 50 55 61 62 61 58 57 56 54 47 44 60 63
155 154 157 157 159 162 157 153 153 147 144 134 132 128 119 117 125 130 130 134 139 145 150 118 102 91 94 96 95 98 102 100 100 105 104 97 89 83 95 103 103 105 105 103 105 100 100 92 75 67 62 57 56 56 55 61 64 56 52 48 59 57 60 69 78 54 46 37 28 7 359 40 53 59 59 61 59 57 51 53 53 52 60 61 79
156 159 157 159 164 163 151 152 156 151 149 144 144 141 133 126 127 132 139 142 139 140 110 113 112 102 96 103 97 89 92 97 102 103 100 96 88 77 80 97 104 106 111 109 113 107 99 87 78 67 57 53 52 50 46 49 61 62 56 57 64 58 48 49 70 54 41 29 2 4 332 334 87 70 59 49 54 52 59 59 58 49 54 64 26
163 160 163 166 165 167 154 159 157 162 162 158 155 151 146 143 136 132 134 138 140 132 127 122 118 111 111 109 106 95 88 98 104 103 106 101 96 89 84 89 111 113 114 117 115 118 115 101 80 69 49 41 35 30 24 28 45 59 52 58 61 53 40 37 50 61 16 340 351 343 314 301 76 108 52 47 41 44 35 37 38 38 24 334 305
169 171 169 171 169 171 168 161 167 166 165 163 157 152 151 142 139 139 139 141 143 139 134 130 121 115 112 114 105 101 105 107 101 107 105 110 110 101 99 100 105 95 93 115 118 119 122 99 84 63 46 40 24 20 17 15 19 46 48 52 58 52 35 44 41 2 323 312 337 315 330 18 336 14 36 109 104 40 53 35 28 17 344 338 333
171 175 178 170 172 174 180 173 168 172 165 159 159 151 133 152 135 142 144 144 142 134 134 142 134 130 123 119 116 117 114 111 118 115 116 118 117 121 110 105 98 80 90 106 121 121 112 98 67 47 38 44 29 21 5 2 9 13 46 31 38 37 51 68 337 255 265 303 321 308 323 342 314 315 16 17 19 76 42 359 2 351 342 339 335
181 182 177 176 178 170 178 180 182 172 165 163 161 158 161 149 158 157 159 152 155 147 152 146 147 146 146 128 126 125 126 129 135 140 137 137 134 132 129 122 123 116 105 111 91 120 122 105 45 29 32 30 30 18 2 355 352 4 13 59 25 5 23 112 274 271 236 266 309 298 309 312 313 329 348 351 145 101 46 250 285 292 308 321 328
182 183 178 177 174 177 179 182 182 175 173 166 164 161 167 163 167 173 167 164 163 164 160 160 163 165 163 148 136 133 133 143 146 140 130 129 140 142 145 141 135 128 121 90 79 67 29 29 35 25 19 11 5 0 358 345 341 348 349 355 61 353 318 206 224 258 257 264 269 280 298 296 298 290 310 296 326 170 251 332 295 283 288 294 300
183 178 184 185 182 180 173 178 178 178 178 171 171 175 171 166 173 179 178 173 178 180 177 175 176 176 172 161 149 138 126 125 134 132 134 137 137 142 135 135 114 107 102 112 68 36 30 9 3 4 351 348 348 338 353 336 333 337 333 325 328 356 302 239 224 248 254 252 256 262 275 283 288 288 299 179 234 190 211 255 265 257 268 277 267
166 189 192 189 186 181 178 173 177 186 184 181 187 177 172 180 184 187 181 187 187 193 194 194 191 187 177 168 148 139 136 129 143 158 161 158 161 175 186 149 134 164 70 131 83 39 21 26 8 338 318 343 330 324 320 319 310 324 326 325 324 325 336 276 245 249 255 254 258 261 265 272 282 282 295 308 311 170 205 229 279 283 281 274 269
181 199 191 195 188 182 182 173 181 182 183 180 178 175 194 191 190 189 187 190 188 196 207 203 205 192 185 174 164 166 161 161 170 187 190 183 184 190 196 187 187 194 206 146 188 212 255 339 316 304 319 328 319 319 317 311 293 296 313 315 327 327 315 286 269 255 255 255 261 266 264 268 269 274 282 294 296 278 213 226 259 274 283 279 259
191 193 192 192 189 189 182 177 182 179 183 179 181 190 197 190 195 178 195 190 185 203 209 205 198 202 196 187 178 171 170 175 187 188 209 190 205 202 190 195 204 222 187 171 183 245 278 297 294 298 310 301 285 293 291 290 307 324 321 310 321 335 310 297 280 267 267 263 263 269 267 266 266 266 271 271 281 284 288 288 283 280 280 273 275
198 197 194 195 196 191 181 184 183 185 183 179 187 188 190 194 194 179 201 190 201 205 205 193 201 205 200 196 184 181 185 185 192 200 180 208 215 202 194 208 205 215 171 223 192 213 239 256 276 280 294 285 281 285 283 297 297 302 283 289 295 301 293 280 271 268 269 260 259 262 265 266 266 268 264 270 274 280 282 283 285 287 285 278 278
200 192 187 200 198 191 187 187 186 187 184 182 191 186 187 197 199 196 202 190 207 203 194 200 202 193 206 203 202 195 191 191 197 195 184 214 217 211 205 218 210 200 176 217 217 199 225 230 257 266 269 268 274 263 269 279 289 272 262 273 287 274 275 256 260 255 256 262 261 263 266 264 265 265 265 266 270 275 277 280 285 287 288 289 279
192 198 194 197 196 192 194 190 188 185 182 189 190 191 185 195 197 196 198 204 204 199 200 203 198 202 205 196 201 204 201 198 194 191 197 210 215 209 222 211 230 212 195 225 204 212 209 215 222 238 247 251 253 266 260 274 285 300 289 289 279 294 284 279 268 261 261 257 257 261 268 269 267 263 266 265 267 269 273 277 281 286 290 292 293
199 200 195 190 187 199 197 193 190 185 185 191 189 192 191 195 194 193 200 204 196 202 200 200 209 208 201 198 198 200 198 202 192 190 196 202 211 214 220 202 233 222 204 214 214 213 216 228 229 232 241 243 264 275 239 259 280 278 299 292 294 292 285 284 282 275 269 269 265 268 266 269 270 268 266 268 267 268 270 275 278 282 287 289 291
206 196 191 189 195 194 197 197 191 189 191 192 191 193 191 192 194 196 198 195 195 198 202 203 208 212 203 198 200 198 195 195 194 192 196 202 206 211 220 222 237 233 217 223 224 217 213 233 252 226 258 263 282 276 265 256 273 278 289 278 289 284 278 290 286 291 282 278 271 265 267 268 270 277 276 272 271 272 273 273 275 279 282 287 292
197 197 189 202 196 191 195 193 195 194 195 195 191 191 192 193 193 196 195 192 194 197 205 202 205 209 207 202 198 198 199 203 190 198 192 197 203 206 210 225 233 233 227 212 220 205 217 216 245 242 258 258 263 272 298 284 273 282 276 270 283 269 285 291 278 279 286 283 278 273 268 266 264 264 268 272 270 271 274 275 276 275 278 283 288
194 196 203 205 191 193 188 197 194 198 195 200 196 194 188 191 192 196 197 194 196 199 203 202 201 207 202 209 202 197 201 200 198 191 196 193 197 208 208 221 215 192 200 218 209 186 190 223 227 242 268 255 252 265 258 262 280 289 278 274 272 272 280 270 283 281 274 268 266 265 264 263 264 263 264 265 273 273 272 277 279 283 284 286 288
203 203 207 201 202 199 191 196 190 198 199 201 199 197 192 190 193 195 194 196 199 202 201 201 202 201 201 208 206 202 199 200 194 190 188 193 194 202 213 213 207 186 195 191 222 203 191 198 212 213 238 263 258 266 242 258 256 265 273 279 275 278 275 281 279 276 271 282 275 272 266 262 260 257 263 269 270 274 281 284 284 285 288 290 292
208 204 203 202 207 204 197 197 194 199 199 200 200 198 192 194 194 195 198 195 201 205 203 197 198 199 202 209 207 204 204 199 195 192 191 188 191 196 214 211 200 195 195 196 196 225 202 205 221 215 212 245 241 259 269 247 261 263 276 276 271 279 275 269 272 273 294 279 275 270 270 266 261 267 270 275 280 280 286 283 282 284 288 289 290
210 209 206 201 206 205 203 203 198 196 197 197 197 196 197 194 195 197 197 200 205 204 201 192 198 198 196 206 205 204 204 201 197 195 202 197 195 190 193 208 200 204 206 195 217 215 253 236 246 235 214 222 243 237 254 261 265 283 277 271 277 273 267 269 265 271 264 270 267 266 266 273 281 277 277 273 273 285 280 282 283 285 284 282 284
210 209 206 207 207 208 207 208 201 197 200 196 194 194 192 198 197 196 202 208 207 204 193 196 196 193 197 199 199 199 202 204 202 198 200 197 200 211 185 183 168 182 197 220 237 237 217 208 222 246 205 227 233 238 248 274 275 268 275 278 282 272 270 264 264 262 259 257 269 278 301 278 290 283 283 279 285 282 282 278 281 284 284 285 286
210 207 209 206 207 209 208 209 206 198 195 193 185 191 188 193 200 212 224 217 209 200 201 200 191 197 196 193 196 196 197 203 206 203 204 199 198 192 211 203 181 168 191 210 234 220 226 233 243 245 260 267 253 258 253 258 267 281 282 284 272 276 277 264 258 252 260 267 267 278 273 288 287 281 276 282 293 288 284 284 284 284 287 288 288
211 207 206 208 206 205 200 210 205 194 185 187 191 190 194 200 210 207 212 203 206 203 208 204 201 201 194 197 194 196 198 201 205 202 208 203 209 217 208 211 228 210 189 208 212 223 233 233 255 205 244 268 278 212 246 214 286 291 275 276 294 255 249 260 256 263 276 273 261 263 269 286 275 273 274 287 286 286 286 289 290 291 287 289 290
214 207 206 208 206 204 204 208 199 196 194 193 192 194 197 199 198 211 203 195 197 205 217 206 207 199 200 199 198 197 198 200 200 201 210 208 203 202 204 211 198 198 212 219 221 226 232 225 204 256 202 223 259 216 210 110 255 231 303 318 304 299 275 248 263 278 267 268 259 262 275 268 274 270 280 278 278 280 283 283 283 284 283 283 284
208 206 208 206 206 206 207 204 200 196 200 197 191 199 200 201 195 193 187 200 221 212 212 200 191 200 205 201 198 197 197 201 199 202 204 204 208 207 209 204 199 207 214 215 221 237 227 222 199 215 260 230 244 260 186 183 249 160 155 351 300 347 332 333 326 277 268 267 311 275 266 263 262 268 275 295 283 282 277 272 274 275 278 282 280
209 208 208 208 206 207 204 202 201 200 200 199 199 203 196 191 195 174 188 182 188 195 198 199 199 207 216 200 205 195 192 200 200 202 207 206 203 207 216 236 232 215 206 215 226 235 222 217 208 222 218 252 215 275 201 193 201 168 305 211 247 101 316 302 300 280 256 269 207 249 246 261 274 287 306 278 275 274 274 277 279 280 281 274 272
208 207 205 206 204 204 203 201 201 201 201 198 198 190 164 157 143 81 90 120 26 148 182 225 209 206 208 205 205 190 197 200 201 204 202 208 206 210 214 222 221 219 218 226 229 228 217 220 218 223 195 205 245 235 261 192 209 210 223 316 321 16 227 269 336 296 1 332 279 253 279 276 278 282 286 284 286 281 283 289 280 277 272 272 272
212 213 207 207 203 202 200 202 202 200 202 200 193 181 182 179 172 180 190 199 213 199 211 215 194 205 211 179 200 198 197 203 203 203 205 209 213 212 212 221 223 229 225 227 227 216 234 225 229 220 214 213 219 223 281 303 233 215 225 226 231 285 319 288 343 308 334 242 268 322 285 263 268 278 292 288 287 287 281 279 275 276 273 270 268
219 206 207 208 204 202 200 198 199 201 202 197 186 182 188 191 192 198 203 205 213 227 197 146 174 199 186 197 205 195 198 198 205 202 204 205 207 209 211 208 209 226 215 205 194 205 214 217 220 214 247 164 146 230 241 250 253 254 249 271 313 280 192 343 284 302 307 326 14 321 300 277 266 267 276 284 287 285 277 264 271 270 274 269 270
212 200 206 199 201 203 195 196 197 200 197 187 183 188 192 195 199 206 206 209 211 211 166 177 167 164 179 206 194 194 194 198 196 199 199 197 197 201 194 170 151 148 161 155 144 133 124 98 117 215 191 171 171 197 226 177 217 286 238 237 262 306 340 248 239 244 283 299 309 299 242 275 334 306 294 282 269 269 282 283 276 274 267 269 264
210 200 202 201 199 197 195 193 198 195 194 184 185 192 197 196 199 201 208 219 207 188 156 146 157 165 177 176 165 163 152 159 166 157 150 137 132 121 102 90 116 116 108 100 87 105 85 66 58 88 154 162 186 167 122 221 181 229 189 331 347 286 283 239 208 131 288 312 309 325 317 315 300 281 262 263 288 293 283 280 273 273 280 276 270
222 220 214 197 197 189 194 192 200 193 190 189 188 193 197 192 197 201 206 202 167 140 150 156 160 166 170 177 162 153 149 137 137 141 132 129 119 110 109 110 102 112 124 122 109 88 99 100 110 106 92 104 118 141 132 247 159 59 95 179 68 297 328 16 28 356 261 232 282 307 303 312 315 311 318 303 288 292 294 297 300 287 275 269 264
225 202 205 197 189 192 195 199 203 191 188 190 188 196 195 195 201 201 202 193 176 160 149 152 144 150 161 166 161 158 152 145 139 130 125 128 123 123 122 124 127 128 118 112 131 128 129 126 112 106 94 87 77 74 78 69 78 76 58 63 48 79 40 290 321 342 351 316 313 305 314 312 308 306 277 283 303 294 291 296 296 300 304 305 300